Weather History for KBHB - January, 2015

Change the Weather History Date:

Monday, January 12, 2015

  Actual Average Record
Temperature  
Mean Temperature 27 °F -  
Max Temperature 30 °F 24 °F 56 °F (1980)
Min Temperature 24 °F 7 °F -8 °F (1968)
Degree Days  
Heating Degree Days 38    
Moisture  
Dew Point 23 °F    
Average Humidity 84    
Maximum Humidity 100    
Minimum Humidity 55    
Precipitation  
Precipitation 0.19 in - - ()
Sea Level Pressure  
Sea Level Pressure 30.24 in    
Wind  
Wind Speed 1 mph (NW)    
Max Wind Speed 9 mph    
Max Gust Speed -    
Visibility 6 miles    
Events      
Averages and records for this station are not official NWS values.
T = Trace of Precipitation, MM = Missing Value Source: NWS Daily Summary

Daily Weather History Graph

Daily Weather History Graph

Search for Another Location

Airport or City:

Trip Planner

Search our weather history database for the weather conditions in past years. The results will help you decide how hot, cold, wet, or windy it might be!

Date:

Astronomy

Jan. 12, 2015 Rise Set
Actual Time 7:07 AM EST 4:15 PM EST
Civil Twilight 6:35 AM EST 4:48 PM EST
Nautical Twilight 5:59 AM EST 5:24 PM EST
Astronomical Twilight 5:24 AM EST 5:59 PM EST
Moon 11:49 PM EST (1/12) 10:34 AM EST (1/12)
Length of Visible Light 10h 13m
Length of Day
9h 08m
Waning Gibbous, 57% of the Moon is Illuminated
Jan 12
Waning Gibbous
Jan 13
Last Quarter
Jan 20
New
Jan 26
First Quarter
Feb 3
Full

Hourly Weather History & Observations

Time (EST) Temp. Windchill Dew Point Humidity Pressure Visibility Wind Dir Wind Speed Gust Speed Precip Events Conditions
12:15 AM 26.6 °F - 12.2 °F 55% 30.44 in 10.0 mi Calm Calm - N/A   Overcast
12:35 AM 26.6 °F 22.6 °F 12.2 °F 55% 30.44 in 10.0 mi West 3.5 mph - N/A   Overcast
12:55 AM 26.6 °F 22.6 °F 12.2 °F 55% 30.44 in 10.0 mi West 3.5 mph - N/A   Overcast
1:15 AM 26.6 °F 22.6 °F 12.2 °F 55% 30.44 in 10.0 mi West 3.5 mph - N/A   Overcast
1:35 AM 26.6 °F - 12.2 °F 55% 30.44 in 10.0 mi Calm Calm - N/A   Overcast
1:55 AM 26.6 °F - 14.0 °F 59% 30.45 in 10.0 mi Calm Calm - N/A   Overcast
2:15 AM 24.8 °F - 15.8 °F 69% 30.43 in 10.0 mi Calm Calm - N/A   Overcast
2:35 AM 24.8 °F - 15.8 °F 69% 30.42 in 10.0 mi Calm Calm - N/A   Overcast
2:55 AM 24.8 °F - 15.8 °F 69% 30.42 in 10.0 mi Calm Calm - N/A   Overcast
3:15 AM 24.8 °F - 15.8 °F 69% 30.41 in 10.0 mi Calm Calm - N/A   Overcast
3:35 AM 24.8 °F - 15.8 °F 69% 30.40 in 10.0 mi Calm Calm - N/A   Overcast
3:55 AM 24.8 °F - 17.6 °F 74% 30.40 in 10.0 mi Calm Calm - N/A   Overcast
4:15 AM 24.8 °F - 17.6 °F 74% 30.39 in 10.0 mi Calm Calm - N/A   Overcast
4:35 AM 24.8 °F 20.5 °F 15.8 °F 69% 30.38 in 10.0 mi North 3.5 mph - N/A   Mostly Cloudy
4:55 AM 24.8 °F - 17.6 °F 74% 30.36 in 10.0 mi Calm Calm - N/A   Mostly Cloudy
5:15 AM 24.8 °F - 17.6 °F 74% 30.36 in 10.0 mi Calm Calm - N/A   Overcast
5:35 AM 24.8 °F - 17.6 °F 74% 30.36 in 10.0 mi Calm Calm - N/A   Overcast
5:55 AM 24.8 °F 20.5 °F 17.6 °F 74% 30.36 in 10.0 mi NNW 3.5 mph - N/A   Overcast
6:15 AM 24.8 °F 20.5 °F 17.6 °F 74% 30.34 in 10.0 mi North 3.5 mph - N/A   Overcast
6:35 AM 24.8 °F - 17.6 °F 74% 30.34 in 10.0 mi Calm Calm - N/A   Overcast
6:55 AM 24.8 °F 20.5 °F 17.6 °F 74% 30.33 in 10.0 mi NNW 3.5 mph - N/A   Overcast
7:15 AM 24.8 °F - 17.6 °F 74% 30.32 in 10.0 mi Calm Calm - N/A   Overcast
7:35 AM 24.8 °F - 17.6 °F 74% 30.32 in 10.0 mi Calm Calm - N/A   Overcast
7:55 AM 24.8 °F 20.5 °F 15.8 °F 69% 30.31 in 9.0 mi NNW 3.5 mph - N/A   Overcast
8:15 AM 24.8 °F - 17.6 °F 74% 30.32 in 10.0 mi Calm Calm - N/A   Overcast
8:35 AM 26.6 °F - 17.6 °F 69% 30.31 in 10.0 mi Calm Calm - N/A   Overcast
8:55 AM 26.6 °F - 17.6 °F 69% 30.30 in 9.0 mi Calm Calm - N/A   Overcast
9:15 AM 26.6 °F - 19.4 °F 74% 30.29 in 2.0 mi Calm Calm - N/A   Overcast
9:35 AM 26.6 °F - 21.2 °F 80% 30.28 in 7.0 mi Calm Calm - N/A   Overcast
9:55 AM 26.6 °F - 21.2 °F 80% 30.27 in 2.0 mi Calm Calm - N/A   Overcast
10:15 AM 28.4 °F - 21.2 °F 74% 30.26 in 0.8 mi Calm Calm - N/A   Overcast
10:35 AM 28.4 °F - 24.8 °F 86% 30.25 in 0.8 mi Calm Calm - 0.01 in   Overcast
10:55 AM 28.4 °F - 26.6 °F 93% 30.23 in 0.8 mi Calm Calm - 0.02 in   Overcast
11:15 AM 28.4 °F - 26.6 °F 93% 30.23 in 2.0 mi Calm Calm - 0.01 in   Overcast
11:35 AM 28.4 °F - 26.6 °F 93% 30.21 in 1.2 mi Calm Calm - 0.01 in   Overcast
11:55 AM 28.4 °F - 24.8 °F 86% 30.20 in 1.0 mi Calm Calm - 0.02 in   Overcast
12:15 PM 28.4 °F - 24.8 °F 86% 30.19 in 1.0 mi Calm Calm - 0.01 in   Overcast
12:35 PM 28.4 °F - 26.6 °F 93% 30.19 in 0.8 mi Calm Calm - 0.01 in   Overcast
12:55 PM 30.2 °F - 28.4 °F 93% 30.18 in 0.8 mi Calm Calm - 0.03 in   Overcast
1:15 PM 30.2 °F - 28.4 °F 93% 30.17 in 0.8 mi Calm Calm - 0.01 in   Overcast
1:35 PM 30.2 °F - 28.4 °F 93% 30.16 in 1.0 mi Calm Calm - 0.02 in   Overcast
1:55 PM 30.2 °F - 28.4 °F 93% 30.16 in 1.0 mi Calm Calm - 0.03 in   Overcast
2:15 PM 30.2 °F - 28.4 °F 93% 30.15 in 1.0 mi Calm Calm - 0.01 in   Overcast
2:35 PM 30.2 °F - 28.4 °F 93% 30.15 in 1.2 mi North - - 0.02 in   Overcast
2:55 PM 30.2 °F - 28.4 °F 93% 30.14 in 1.0 mi North - - 0.03 in   Overcast
3:15 PM 28.4 °F - 28.4 °F 100% 30.13 in 1.8 mi Calm Calm - N/A   Overcast
3:35 PM 28.4 °F - 28.4 °F 100% 30.12 in 1.8 mi Calm Calm - N/A   Overcast
3:55 PM 28.4 °F - 28.4 °F 100% 30.11 in 3.0 mi Calm Calm - N/A   Overcast
4:15 PM 28.4 °F - 28.4 °F 100% 30.11 in 5.0 mi Calm Calm - N/A   Overcast
4:35 PM 28.4 °F - 28.4 °F 100% 30.10 in 5.0 mi Calm Calm - N/A   Overcast
4:55 PM 28.4 °F - 28.4 °F 100% 30.11 in 3.0 mi Calm Calm - N/A   Overcast
5:15 PM 28.4 °F - 26.6 °F 93% 30.11 in 2.0 mi Calm Calm - 0.01 in   Overcast
5:35 PM 28.4 °F - 26.6 °F 93% 30.11 in 2.5 mi Calm Calm - 0.01 in   Overcast
5:55 PM 28.4 °F - 26.6 °F 93% 30.12 in 1.5 mi Calm Calm - 0.02 in   Overcast
6:15 PM 28.4 °F - 28.4 °F 100% 30.13 in 1.8 mi Calm Calm - N/A   Overcast
6:35 PM 28.4 °F - 28.4 °F 100% 30.13 in 1.8 mi Calm Calm - 0.01 in   Overcast
6:55 PM 28.4 °F - 28.4 °F 100% 30.12 in 1.5 mi Calm Calm - 0.02 in   Overcast
7:15 PM 28.4 °F - 28.4 °F 100% 30.12 in 2.5 mi Calm Calm - 0.01 in   Overcast
7:35 PM 28.4 °F - 28.4 °F 100% 30.11 in 3.0 mi Calm Calm - 0.01 in   Overcast
7:55 PM 28.4 °F - 26.6 °F 93% 30.11 in 3.0 mi Calm Calm - 0.01 in   Mostly Cloudy
8:15 PM 28.4 °F - 26.6 °F 93% 30.10 in 3.0 mi Calm Calm - N/A   Overcast
8:35 PM 28.4 °F - 26.6 °F 93% 30.10 in 2.0 mi Calm Calm - N/A   Overcast
8:55 PM 28.4 °F - 26.6 °F 93% 30.10 in 3.0 mi Calm Calm - 0.01 in   Overcast
9:15 PM 28.4 °F 24.6 °F 28.4 °F 100% 30.10 in 3.0 mi NW 3.5 mph - N/A   Overcast
9:35 PM 28.4 °F - 28.4 °F 100% 30.10 in 7.0 mi Calm Calm - N/A   Overcast
9:55 PM 28.4 °F 23.3 °F 28.4 °F 100% 30.12 in 3.0 mi NNW 4.6 mph - N/A   Overcast
10:15 PM 28.4 °F 21.2 °F 28.4 °F 100% 30.11 in 7.0 mi NNW 6.9 mph - N/A   Mostly Cloudy
10:35 PM 28.4 °F 23.3 °F 28.4 °F 100% 30.11 in 10.0 mi NW 4.6 mph - N/A   Overcast
10:55 PM 28.4 °F 23.3 °F 28.4 °F 100% 30.11 in 9.0 mi NNW 4.6 mph - N/A   Overcast
11:15 PM 28.4 °F 23.3 °F 28.4 °F 100% 30.12 in 9.0 mi NNW 4.6 mph - N/A   Overcast
11:35 PM 28.4 °F 22.2 °F 28.4 °F 100% 30.12 in 10.0 mi North 5.8 mph - N/A   Mostly Cloudy
11:55 PM 28.4 °F 19.7 °F 28.4 °F 100% 30.13 in 10.0 mi NNW 9.2 mph - N/A   Mostly Cloudy